[[{"header":{"parameterUnit":"m.s-1","parameterCategory":1,"la1":30.2991,"la2":30.254,"lo1":-89.0895,"lo2":-89.0444,"dy":0.0017,"dx":0.0017,"nx":28,"ny":28,"refTime":"2025-07-15T21:00:00:Z","depth":0,"parameterNumber":2,"parameterNumberName":"U-component_of_WINDS"},"data":[0,0,0,0,0,0,0,0,0,0,0,0,0,0,0,0,0,0,0,0,0,0,0,0,0,0,0,0,0,0,0,0,0,0,0,0,0,0,0,0,0,0,0,0,0,0,0,0,0,0,0,0,0,0,0,0,0,0,2.0003,2.0004,0,2.0047,2.0047,2.0048,1.9924,1.9921,1.9917,1.9913,1.9965,1.997,1.9975,0,0,0,0,0,0,0,0,0,0,0,0,0,1.9823,1.9827,2.0003,2.0004,2.0005,2.0047,2.0047,2.0048,1.9925,1.992,1.9916,1.9911,1.9963,1.9969,1.9975,0,0,0,0,0,0,0,0,0,0,0,0,0,1.9888,1.9828,2.0003,1.9948,1.9944,2.0046,2.0047,2.0048,1.9926,1.992,1.9915,1.9909,1.9961,1.9969,1.9976,2.0136,0,0,1.9999,2.0002,0,0,0,0,0,0,0,0,1.9884,1.9894,1.9956,1.9952,1.9947,1.9974,2.0002,2.0078,1.9928,1.9933,1.9913,1.9906,1.9973,1.9979,2.0,2.0139,2.0141,1.9999,2.0004,2.0007,2.0009,0,0,0,0,0,0,0,1.988,1.9892,2.0021,1.9957,1.9952,1.9924,1.9927,2.0016,1.9985,1.9932,1.9923,1.993,1.997,1.9993,2.0,2.0142,1.9999,2.0006,2.001,2.0013,2.0418,2.0424,0,0,0,0,0,0,1.9881,1.9889,2.0019,2.0022,1.9901,1.9932,1.9935,1.9971,1.9984,1.998,1.9934,1.9924,1.9983,1.9992,2.0002,2.0193,2.0007,2.0014,2.0018,2.0411,2.0419,2.0426,0,0,0,0,0,0,1.9878,1.9894,2.0018,1.9953,1.9966,1.9941,1.9983,1.9975,1.9999,1.9985,1.998,1.9964,1.9979,1.9991,2.0104,2.0193,2.0017,2.0024,2.0404,2.0414,2.0422,2.0576,0,0,0,0,0,0,1.9873,1.9893,1.9952,1.9955,1.997,2.0117,1.9988,1.998,2.0011,1.9997,2.0011,2.0008,1.9976,2.0094,2.0111,2.02,2.003,2.0396,2.0408,2.0419,2.0563,2.0589,2.0612,0,0,0,0,0,1.9867,1.9995,1.9956,1.9972,2.0043,2.0122,2.0131,2.0089,2.0018,2.0079,2.0071,2.0008,2.018,2.0106,2.0125,2.0218,2.039,2.0405,2.0419,2.0551,2.0584,2.0611,0,0,0,0,0,0,2.0005,1.9994,1.9951,2.0082,2.0104,2.0101,2.0176,2.0124,2.0169,2.0154,2.0102,2.0107,2.023,2.0234,2.0153,2.0375,2.0273,2.0292,2.0368,2.0399,2.0423,2.0421,2.0036,0,0,0,0,0,2.005,2.0113,2.0101,2.0219,2.0231,2.0202,2.0235,2.0201,2.0222,2.0231,2.0231,2.0257,2.0316,2.0357,2.0411,2.0561,2.0565,2.0635,2.0659,2.0679,2.0697,2.0781,2.0813,2.0472,2.0472,2.0472,0,0,2.0146,2.0147,2.0191,2.0246,2.0259,2.0329,2.0211,2.0289,2.0341,2.0244,2.035,2.0352,2.0376,2.051,2.0568,2.0517,2.0792,2.0698,2.0714,2.0721,2.0799,2.0831,2.086,2.0482,2.048,2.0479,0,0,2.0355,2.0361,2.0461,2.0476,2.0496,2.0476,2.05,2.0505,2.0502,2.0607,2.0537,2.0599,2.0702,2.0724,2.0749,2.0968,2.0913,2.0987,2.1117,2.1199,2.1226,2.1249,2.1331,2.136,2.1004,2.1004,2.1005,0,2.0472,2.0571,2.0519,2.0603,2.0631,2.0544,2.0647,2.0664,2.0703,2.0726,2.0667,2.0796,2.0807,2.0945,2.0999,2.102,2.1049,2.0986,2.1225,2.1248,2.127,2.1347,2.1378,2.1013,2.1012,2.1011,2.1011,0,2.0715,2.0785,2.0864,2.0901,2.0938,2.1031,2.0996,2.104,2.1003,2.099,2.11,2.111,2.1166,2.1195,2.116,2.133,2.1298,2.1233,2.1131,2.1312,2.1384,2.1413,2.1026,2.1023,2.102,2.1018,0,0,2.1014,2.1021,2.1052,2.1068,2.1085,2.1139,2.1229,2.1282,2.1322,2.1351,2.1428,2.1518,2.1459,2.1487,2.1453,2.1524,2.1702,2.1451,2.1451,2.1501,2.1894,2.1945,2.198,2.1664,2.167,2.1674,2.1893,0,2.1223,2.1375,2.1332,2.1486,2.1552,2.1471,2.155,2.157,2.1561,2.1618,2.1608,2.1674,2.1588,2.1605,2.1672,2.1666,2.1781,2.1649,2.1739,2.1743,2.1739,2.2017,2.2071,2.2278,2.1921,2.1925,2.1929,0,2.1487,2.1525,2.1685,2.1692,2.1719,2.179,2.1836,2.189,2.1913,2.1901,2.1933,2.1886,2.1978,2.1872,2.2001,2.1912,2.1946,2.1949,2.1956,2.1966,2.1849,2.2038,2.2342,2.2375,2.1972,2.1968,2.1965,0,2.1694,2.1785,2.1893,2.191,2.192,2.1973,2.198,2.1996,2.2031,2.2072,2.2095,2.2147,2.2177,2.2219,2.2188,2.2114,2.2323,2.2214,2.232,2.2321,2.237,2.2368,2.2688,2.2387,2.2386,2.2386,2.2385,0,2.1933,2.2035,2.1986,2.2053,2.2166,2.2117,2.2231,2.2229,2.2245,2.2313,2.2245,2.2311,2.2264,2.2327,2.2303,2.2415,2.2428,2.2424,2.2418,2.2432,2.2434,2.2456,2.2443,2.2394,2.2392,2.2391,2.2389,0,2.2184,2.2154,2.2268,2.2268,2.227,2.2354,2.2356,2.2419,2.2404,2.2491,2.2509,2.2487,2.2558,2.253,2.2605,2.2589,2.2734,2.2706,2.2726,2.272,2.2829,2.282,2.3177,2.3223,2.2889,2.2893,2.2895,0,2.234,2.2417,2.2425,2.2464,2.2476,2.254,2.2575,2.253,2.2571,2.2603,2.2664,2.2728,2.2777,2.2893,2.2886,2.2944,2.292,2.3041,2.2929,2.2942,2.2926,2.2924,2.2933,2.3065,2.3069,2.3072,2.3074,0,2.2623,2.2605,2.2656,2.2705,2.2748,2.2785,2.2815,2.2852,2.2809,2.2858,2.2928,2.2966,2.3042,2.3108,2.316,2.317,2.3118,2.3109,2.3137,2.3155,2.3165,2.3165,2.2791,2.3102,2.3099,2.3097,2.3096,2.3095,2.2833,2.2899,2.2915,2.2976,2.2994,2.3025,2.3085,2.3078,2.3135,2.3192,2.3162,2.3245,2.3268,2.3332,2.3349,2.3416,2.3369,2.3409,2.3419,2.3431,2.3447,2.3151,2.3424,2.3424,2.3423,2.3422,2.3421,0,2.3115,2.3121,2.3178,2.3223,2.3272,2.3214,2.3245,2.3291,2.3364,2.3389,2.3438,2.352,2.3584,2.3582,2.3642,2.3696,2.3673,2.3713,2.3711,2.3715,2.3483,2.3455,2.3731,2.373,2.373,2.373,2.373,2.373,2.3268,2.3376,2.336,2.3478,2.3484,2.3563,2.3587,2.3616,2.3635,2.373,2.3782,2.3779,2.3794,2.3854,2.3912,2.3909,2.3937,2.3987,2.3976,2.3761,2.3731,2.3701,2.3674,2.3992,2.3992,2.4202,2.4204,2.4206]},{"header":{"parameterUnit":"m.s-1","parameterCategory":1,"la1":30.2991,"la2":30.254,"lo1":-89.0895,"lo2":-89.0444,"dy":0.0017,"dx":0.0017,"nx":28,"ny":28,"refTime":"2025-07-15T21:00:00:Z","depth":0,"parameterNumber":3,"parameterNumberName":"V-component_of_WINDS"},"data":[0,0,0,0,0,0,0,0,0,0,0,0,0,0,0,0,0,0,0,0,0,0,0,0,0,0,0,0,0,0,0,0,0,0,0,0,0,0,0,0,0,0,0,0,0,0,0,0,0,0,0,0,0,0,0,0,0,0,-1.2585,-1.2586,0,-1.2632,-1.2632,-1.2633,-1.2679,-1.268,-1.268,-1.2681,-1.2727,-1.2727,-1.2728,0,0,0,0,0,0,0,0,0,0,0,0,0,-1.2536,-1.2537,-1.2585,-1.2586,-1.2586,-1.2632,-1.2632,-1.2633,-1.2679,-1.268,-1.268,-1.2681,-1.2726,-1.2727,-1.2728,0,0,0,0,0,0,0,0,0,0,0,0,0,-1.2567,-1.2537,-1.2585,-1.2615,-1.2618,-1.2632,-1.2632,-1.2633,-1.2679,-1.268,-1.2681,-1.2682,-1.2726,-1.2727,-1.2728,-1.2716,0,0,-1.2731,-1.2731,0,0,0,0,0,0,0,0,-1.2565,-1.2569,-1.261,-1.2613,-1.2616,-1.2651,-1.2632,-1.2661,-1.2679,-1.2656,-1.2681,-1.2682,-1.27,-1.2704,-1.271,-1.2718,-1.272,-1.2731,-1.2732,-1.2732,-1.2732,0,0,0,0,0,0,0,-1.2563,-1.2567,-1.2604,-1.261,-1.2614,-1.2626,-1.2631,-1.2638,-1.2672,-1.2658,-1.2661,-1.2666,-1.2702,-1.2709,-1.2712,-1.272,-1.2731,-1.2732,-1.2733,-1.2733,-1.2722,-1.2722,0,0,0,0,0,0,-1.2557,-1.2565,-1.2602,-1.2605,-1.2593,-1.2626,-1.2632,-1.2639,-1.2672,-1.2678,-1.2665,-1.2668,-1.2707,-1.2711,-1.2713,-1.2702,-1.2732,-1.2733,-1.2734,-1.2723,-1.2722,-1.2721,0,0,0,0,0,0,-1.2555,-1.2559,-1.26,-1.2586,-1.2592,-1.2626,-1.2633,-1.2639,-1.2646,-1.2678,-1.2684,-1.2666,-1.2708,-1.2712,-1.2715,-1.2704,-1.2733,-1.2734,-1.2724,-1.2723,-1.2722,-1.2679,0,0,0,0,0,0,-1.2554,-1.2559,-1.2554,-1.2586,-1.2593,-1.2601,-1.2632,-1.2639,-1.2648,-1.2652,-1.268,-1.2686,-1.2709,-1.2714,-1.2716,-1.2706,-1.2735,-1.2725,-1.2724,-1.2722,-1.2681,-1.2676,-1.2672,0,0,0,0,0,-1.2552,-1.2539,-1.2554,-1.2558,-1.2588,-1.26,-1.2604,-1.2632,-1.2647,-1.2642,-1.2664,-1.2685,-1.2706,-1.2714,-1.2717,-1.2707,-1.2726,-1.2724,-1.2722,-1.2683,-1.2677,-1.2672,0,0,0,0,0,0,-1.2504,-1.2544,-1.256,-1.2557,-1.2575,-1.2608,-1.2603,-1.2624,-1.2637,-1.264,-1.2674,-1.268,-1.2679,-1.2694,-1.2702,-1.2698,-1.2719,-1.2718,-1.2688,-1.2683,-1.2678,-1.2674,-1.2736,0,0,0,0,0,-1.2493,-1.2501,-1.2535,-1.2529,-1.2537,-1.2569,-1.2575,-1.2595,-1.2615,-1.2622,-1.2644,-1.2661,-1.2672,-1.2678,-1.269,-1.2684,-1.2692,-1.2679,-1.2675,-1.2671,-1.2669,-1.2668,-1.2664,-1.2715,-1.2715,-1.2715,0,0,-1.2471,-1.2493,-1.2496,-1.252,-1.2536,-1.2543,-1.2575,-1.258,-1.2586,-1.2623,-1.2628,-1.2644,-1.2667,-1.2666,-1.2666,-1.2678,-1.2657,-1.2668,-1.2665,-1.2665,-1.2666,-1.2661,-1.2657,-1.2714,-1.2714,-1.2714,0,0,-1.2433,-1.2451,-1.2449,-1.2465,-1.249,-1.2512,-1.2511,-1.2542,-1.2554,-1.256,-1.2589,-1.2596,-1.2613,-1.2629,-1.2639,-1.2611,-1.2631,-1.2614,-1.2588,-1.2588,-1.2584,-1.258,-1.2571,-1.2567,-1.2612,-1.2612,-1.2612,0,-1.2402,-1.2414,-1.2445,-1.245,-1.246,-1.2496,-1.2495,-1.2509,-1.2535,-1.2542,-1.2555,-1.2579,-1.2596,-1.26,-1.2594,-1.2601,-1.2602,-1.261,-1.2582,-1.2579,-1.2576,-1.2567,-1.2564,-1.2609,-1.261,-1.261,-1.261,0,-1.2374,-1.2382,-1.2378,-1.2405,-1.2415,-1.2416,-1.2448,-1.2454,-1.2474,-1.2495,-1.2501,-1.2524,-1.2541,-1.2544,-1.2563,-1.2551,-1.2558,-1.2576,-1.2597,-1.2568,-1.2561,-1.2558,-1.2606,-1.2607,-1.2608,-1.2608,0,0,-1.2306,-1.2352,-1.235,-1.2363,-1.2395,-1.2401,-1.2405,-1.2424,-1.2429,-1.2447,-1.2452,-1.2467,-1.2485,-1.2496,-1.2517,-1.2517,-1.2494,-1.2535,-1.2536,-1.2527,-1.2485,-1.2471,-1.2466,-1.2509,-1.2509,-1.2508,-1.2483,0,-1.2274,-1.2283,-1.2313,-1.2313,-1.2322,-1.2357,-1.2361,-1.2381,-1.2401,-1.2411,-1.2433,-1.2443,-1.2465,-1.2473,-1.2474,-1.2497,-1.2486,-1.2499,-1.2513,-1.2514,-1.2506,-1.2462,-1.2447,-1.2422,-1.248,-1.248,-1.2479,0,-1.2237,-1.2254,-1.2256,-1.2289,-1.2294,-1.2296,-1.2317,-1.2326,-1.235,-1.2365,-1.2379,-1.2404,-1.241,-1.2431,-1.2442,-1.245,-1.2458,-1.247,-1.247,-1.2472,-1.2494,-1.2463,-1.2415,-1.2411,-1.2475,-1.2475,-1.2476,0,-1.2187,-1.2211,-1.2216,-1.2226,-1.2265,-1.2266,-1.2282,-1.2307,-1.2317,-1.2336,-1.2343,-1.2361,-1.2371,-1.2384,-1.2413,-1.2426,-1.2421,-1.2444,-1.2433,-1.2433,-1.243,-1.2429,-1.2382,-1.2435,-1.2435,-1.2435,-1.2435,0,-1.2148,-1.2148,-1.2194,-1.2197,-1.2198,-1.2233,-1.2233,-1.2253,-1.2275,-1.2283,-1.2315,-1.2321,-1.236,-1.237,-1.2393,-1.2399,-1.2403,-1.2415,-1.2421,-1.2412,-1.2411,-1.2417,-1.242,-1.2434,-1.2435,-1.2435,-1.2435,0,-1.2092,-1.2123,-1.2131,-1.2168,-1.2178,-1.2177,-1.2209,-1.2213,-1.2236,-1.2245,-1.2249,-1.2285,-1.23,-1.2331,-1.2354,-1.2369,-1.237,-1.238,-1.2361,-1.2365,-1.2353,-1.2354,-1.2308,-1.2304,-1.236,-1.2359,-1.2359,0,-1.2065,-1.2066,-1.2104,-1.2112,-1.2127,-1.2139,-1.215,-1.2185,-1.2195,-1.2224,-1.2225,-1.2243,-1.2259,-1.2281,-1.2309,-1.2327,-1.2339,-1.2322,-1.2342,-1.2333,-1.2339,-1.2339,-1.2339,-1.2317,-1.2316,-1.2315,-1.2315,0,-1.2013,-1.203,-1.2044,-1.2065,-1.2078,-1.2096,-1.2115,-1.212,-1.216,-1.217,-1.2186,-1.2199,-1.2223,-1.2241,-1.2264,-1.2281,-1.2304,-1.2309,-1.2307,-1.2298,-1.2287,-1.2293,-1.2349,-1.2309,-1.231,-1.231,-1.2311,-1.2311,-1.1971,-1.1975,-1.2002,-1.2018,-1.2037,-1.2056,-1.2062,-1.2087,-1.2101,-1.2124,-1.2145,-1.2159,-1.2186,-1.2219,-1.2235,-1.2247,-1.2259,-1.2257,-1.2256,-1.2255,-1.2251,-1.2286,-1.2252,-1.2252,-1.2252,-1.2252,-1.2252,0,-1.1922,-1.1942,-1.1957,-1.1984,-1.1997,-1.202,-1.2044,-1.2053,-1.2066,-1.2089,-1.2105,-1.2124,-1.2142,-1.2172,-1.2193,-1.2197,-1.2209,-1.2201,-1.2201,-1.2205,-1.224,-1.2239,-1.2192,-1.2192,-1.2192,-1.2192,-1.2192,-1.2192,-1.1898,-1.1905,-1.1924,-1.1942,-1.1962,-1.1978,-1.1989,-1.2007,-1.2025,-1.2046,-1.2062,-1.2082,-1.2108,-1.2131,-1.2149,-1.2158,-1.2164,-1.2153,-1.2165,-1.2197,-1.2202,-1.2208,-1.2207,-1.2154,-1.2154,-1.2129,-1.2129,-1.2129]}]]